AirNav   Everest Fuels
 
 510 users online  

67AR Wedington Woods Airport
Fayetteville, Arkansas, USA

GOING TO FAYETTEVILLE?


FAA INFORMATION EFFECTIVE 21 MAY 2020

Location

FAA Identifier: 67AR
Lat/Long: 36-05-52.0000N 094-18-27.0000W
36-05.866667N 094-18.450000W
36.0977778,-94.3075000
(estimated)
Elevation: 1090 ft. / 332 m (estimated)
Variation: 05E (1985)
From city: 7 miles W of FAYETTEVILLE, AR
Time zone: UTC -5 (UTC -6 during Standard Time)
Zip code: 72704

Airport Operations

Airport use: Private use. Permission required prior to landing
Activation date: 05/1973
Control tower: no
ARTCC: MEMPHIS CENTER
FSS: JONESBORO FLIGHT SERVICE STATION
Attendance: CONTINUOUS
Wind indicator: yes
Segmented circle: no

Airport Communications

WX ASOS at FYV (9 nm SE): 119.575 (479-442-5237)
WX AWOS-3 at ASG (10 nm NE): 124.675 (479-750-2967)
WX AWOS-3PT at SLG (10 nm NW): 118.375 (479-524-9893)
WX ASOS at XNA (11 nm N): 119.425 (479-203-0109)
WX AWOS-3PT at VBT (15 nm N): 134.975 (479-273-9198)
WX AWOS-3PT at ROG (19 nm NE): 134.375 (479-631-9196)

Nearby radio navigation aids

VOR radial/distance  VOR name  Freq  Var
RZCr221/12.7RAZORBACK VORTAC116.4004E

 
NDB name  Hdg/Dist  Freq  Var  ID
SILOAM SPRINGS118/10.328404ESLG ... .-.. --.

Airport Services

Airframe service: NONE
Powerplant service: NONE

Runway Information

Runway 17/35

Dimensions: 3100 x 50 ft. / 945 x 15 m
Surface: turf
RUNWAY 17  RUNWAY 35
Traffic pattern: leftleft
Obstructions: hillnone

Airport Ownership and Management from official FAA records

Ownership: Privately-owned
Owner: DAVID MOORE
16089 WINDSOCK LANE
FAYETTEVILLE, AR 72704
Phone (479) 310-5209
AND OTHER PROPERTY OWNERS.
Manager: DAVID MOORE
16089 WINDSOCK LANE
FAYETTEVILLE, AR 72704
Phone (479) 310-5209

Airport Operational Statistics

Aircraft based on the field: 9
Single engine airplanes: 9
    

Additional Remarks

FOR CD CTC RAZORBACK APCH 479-649-2416, WHEN APCH CLSD CTC MEMPHIS ARTCC AT 901-368-8453.

Instrument Procedures

There are no published instrument procedures at 67AR.

Some nearby airports with instrument procedures:

KFYV - Drake Field Airport (9 nm SE)
KASG - Springdale Municipal Airport (10 nm NE)
KSLG - Smith Field Airport (10 nm NW)
KXNA - Northwest Arkansas Regional Airport (11 nm N)
KVBT - Bentonville Municipal Airport/Louise M Thaden Field (15 nm N)
5M5 - Crystal Lake Airport (16 nm NW)
KROG - Rogers Executive Airport - Carter Field (19 nm NE)
 
Loc | Ops | Rwys | IFR | FBO | Links
Com | Nav | Svcs | Stats | Notes
Area around 67AR (Wedington Woods Airport)
 
Road maps at: MapQuest Bing Google
 
Aerial photo
WARNING: Photo may not be current or correct
Aerial photo of 67AR (Wedington Woods Airport)
Do you have a better or more recent aerial photo of Wedington Woods Airport that you would like to share? If so, please send us your photo.

 
Sectional chart

 
Airport distance calculator
Flying to Wedington Woods Airport? Find the distance to fly.

From to 67AR

Sunrise and sunset
Times for 07-Jun-2020
 Local
(UTC-5)
 Zulu
(UTC)
Morning civil twilight05:3110:31
Sunrise06:0111:01
Sunset20:3201:32
Evening civil twilight21:0202:02

Current date and time
Zulu (UTC)  07-Jun-2020 05:22:51
Local (UTC-5)  07-Jun-2020 00:22:51
 
METAR
KFYV 
8nm SE 
070453Z AUTO 00000KT 10SM CLR 23/21 A2996 RMK AO2 SLP127 T02280211
KSLG 
10nm NW 
070456Z AUTO 12004KT 10SM CLR 23/20 A2996 RMK AO2 SLP131 T02280200 TSNO
KASG 
10nm NE 
070148Z 00000KT 10SM CLR 28/21 A2995
KXNA 
11nm N 
070453Z AUTO 11004KT 10SM CLR 25/19 A2996 RMK AO2 SLP127 T02500194
KVBT 
16nm N 
070456Z AUTO 13005KT 10SM CLR 24/22 A2998 RMK AO2 SLP139 T02440217 TSNO
KROG 
19nm NE 
070458Z AUTO 13004KT 10SM CLR 24/22 A2998 RMK AO2 SLP132 T02440217
TAF
KFYV 
8nm SE 
061720Z 0618/0718 07007KT P6SM BKN040 FM062200 10006KT P6SM SCT040 FM070100 10002KT P6SM FEW250 FM071400 14006KT P6SM FEW250
KXNA 
11nm N 
061832Z 0619/0718 08005KT P6SM SCT040 FM062200 11006KT P6SM SCT040 FM070100 12005KT P6SM FEW250 FM071300 13006KT P6SM FEW250
KROG 
19nm NE 
061832Z 0619/0718 07006KT P6SM SCT040 FM062200 10006KT P6SM SCT040 FM070100 12004KT P6SM FEW250 FM071300 11009KT P6SM FEW250
NOTAMs
Click for the latest NOTAMs
NOTAMs are issued by the DoD/FAA and will open in a separate window not controlled by AirNav.

 

 
 

Would you like to see your business listed on this page?

 If your business provides an interesting product or service to pilots, flight crews, aircraft, or users of the Wedington Woods Airport, you should consider listing it here.  To start the listing process, click on the button below
 
Add a business
 

Other Pages about Wedington Woods Airport

Update a link
 
Copyright © AirNav, LLC. All rights reserved. Privacy Policy  Contact